Tracking 27079 objects as of 23-Mar-2023
HD Live streaming from Space Station
objects crossing your sky now

RESURS O1 DEB

Track RESURS O1 DEB now!
10-day predictions


NORAD ID: 46891
Int'l Code: 1994-074BX
Perigee: 574.3 km
Apogee: 581.5 km
Inclination: 97.9 °
Period: 96.1 minutes
Semi major axis: 6948 km
RCS: Unknown
Launch date: November 4, 1994
Source: Commonwealth of Independent States (former USSR) (CIS)
Launch site: TYURATAM MISSILE AND SPACE COMPLEX (TTMTR)

Note: This is SATELLITE DEBRIS
Your satellite tracking list
Your tracking list is empty




NASA's NSSDC Master Catalog

Two Line Element Set (TLE):
1 46891U 94074BX  23082.09643684  .00040586  00000-0  33584-2 0  9995
2 46891  97.9108 138.8292 0005145 205.8165 154.2801 14.98745946128873
Source of the keplerian elements: AFSPC